Location: Betpouey
(42.8833°N, 0.0333°E)
Time: 06:34:32
(UTC+00:00)

Cosmos 2341 Rocket - Pass Details

Date: 01 December 2020
Orbit: 969 x 1003 km, 82.9° (Epoch: 17 January)

Event Time Altitude Azimuth Distance (km) Brightness Sun altitude
Rises 17:15:49 0° 351° (N) 3,700 6.9 -9.0°
Reaches altitude 10° 17:18:19 10° 350° (N) 2,753 6.3 -9.4°
Maximum altitude 17:24:39 80° 265° (W) 1,011 4.2 -10.5°
Drops below altitude 10° 17:30:59 10° 179° (S) 2,757 6.6 -11.6°
Sets 17:33:30 0° 178° (S) 3,706 7.3 -12.0°
